SB KEPS @ AMSAT $ORB07130.O Orbital Elements 07130.OSCAR
HR AMSAT ORBITAL ELEMENTS FOR OSCAR SATELLITES FROM WA5QGD FORT WORTH,TX May 10, 2007 Send SUBSCRIBE KEPS/UNSUBSCRIBE KEPS to majordomo@amsat.org only BID: ORB07130.O TO ALL RADIO AMATEURS BT
Satellite: AO-07 Catalog number: 07530 Epoch time: 07129.91419196 Element set: 0871 Inclination: 101.5165 deg RA of node: 169.0436 deg Eccentricity: 0.0012017 Arg of perigee: 331.8686 deg Mean anomaly: 028.1732 deg Mean motion: 12.53572666 rev/day Decay rate: -2.8e-07 rev/day^2 Epoch rev: 48632 Checksum: 302
Satellite: AO-10 Catalog number: 14129 Epoch time: 07128.71438669 Element set: 0381 Inclination: 026.6070 deg RA of node: 278.0780 deg Eccentricity: 0.6059083 Arg of perigee: 020.4788 deg Mean anomaly: 355.8504 deg Mean motion: 02.05870668 rev/day Decay rate: -1.01e-06 rev/day^2 Epoch rev: 17975 Checksum: 319
Satellite: UO-11 Catalog number: 14781 Epoch time: 07129.70984355 Element set: 0368 Inclination: 098.1911 deg RA of node: 151.6662 deg Eccentricity: 0.0008223 Arg of perigee: 299.8447 deg Mean anomaly: 060.1937 deg Mean motion: 14.79549441 rev/day Decay rate: 3.64e-06 rev/day^2 Epoch rev: 24404 Checksum: 325
Satellite: RS-15 Catalog number: 23439 Epoch time: 07129.93397140 Element set: 0061 Inclination: 064.8185 deg RA of node: 068.7803 deg Eccentricity: 0.0160714 Arg of perigee: 197.6125 deg Mean anomaly: 161.9179 deg Mean motion: 11.27551959 rev/day Decay rate: -3.9e-07 rev/day^2 Epoch rev: 50938 Checksum: 331
Satellite: FO-29 Catalog number: 24278 Epoch time: 07129.97003342 Element set: 0508 Inclination: 098.5481 deg RA of node: 094.7553 deg Eccentricity: 0.0350518 Arg of perigee: 182.2060 deg Mean anomaly: 177.7548 deg Mean motion: 13.52929824 rev/day Decay rate: 5.3e-07 rev/day^2 Epoch rev: 52973 Checksum: 332
Satellite: SO-33 Catalog number: 25509 Epoch time: 07129.95985866 Element set: 0924 Inclination: 031.4284 deg RA of node: 081.8672 deg Eccentricity: 0.0354781 Arg of perigee: 093.1546 deg Mean anomaly: 270.9753 deg Mean motion: 14.28165220 rev/day Decay rate: 1.31e-06 rev/day^2 Epoch rev: 44578 Checksum: 334
Satellite: AO-40 Catalog number: 26609 Epoch time: 07129.32374177 Element set: 875 Inclination: 005.2477 deg RA of node: 149.2056 deg Eccentricity: 0.7988857 Arg of perigee: 313.3915 deg Mean anomaly: 003.2895 deg Mean motion: 01.25587486 rev/day Decay rate: -6.0e-08 rev/day^2 Epoch rev: 2995 Checksum: 346
Satellite: VO-52 Catalog number: 28650 Epoch time: 07130.41696003 Element set: 623 Inclination: 097.8318 deg RA of node: 201.9753 deg Eccentricity: 0.0027750 Arg of perigee: 019.0030 deg Mean anomaly: 341.2256 deg Mean motion: 14.81307363 rev/day Decay rate: 6.2e-07 rev/day^2 Epoch rev: 10882 Checksum: 273
Satellite: PO-63 Catalog number: 29712 Epoch time: 07130.64680249 Element set: 348 Inclination: 097.9233 deg RA of node: 190.3238 deg Eccentricity: 0.0012940 Arg of perigee: 249.0319 deg Mean anomaly: 110.9509 deg Mean motion: 14.79671194 rev/day Decay rate: 6.33e-06 rev/day^2 Epoch rev: 1778 Checksum: 317
/EX SB KEPS @ AMSAT $ORB07130.D Orbital Elements 07130.MICROS
HR AMSAT ORBITAL ELEMENTS FOR THE MICROSATS FROM WA5QGD FORT WORTH,TX May 10, 2007 Send SUBSCRIBE KEPS/UNSUBSCRIBE KEPS to majordomo@amsat.org only BID: ORB07130.D TO ALL RADIO AMATEURS BT
Satellite: AO-16 Catalog number: 20439 Epoch time: 07130.42286754 Element set: 30 Inclination: 098.1952 deg RA of node: 127.0623 deg Eccentricity: 0.0010140 Arg of perigee: 303.5454 deg Mean anomaly: 056.4777 deg Mean motion: 14.31758794 rev/day Decay rate: 1.7e-07 rev/day^2 Epoch rev: 90314 Checksum: 283
Satellite: LO-19 Catalog number: 20442 Epoch time: 07129.90867385 Element set: 0958 Inclination: 098.1804 deg RA of node: 135.9783 deg Eccentricity: 0.0011181 Arg of perigee: 304.1897 deg Mean anomaly: 055.8245 deg Mean motion: 14.31998944 rev/day Decay rate: -5.0e-07 rev/day^2 Epoch rev: 90321 Checksum: 332
Satellite: AO-27 Catalog number: 22825 Epoch time: 07130.39324391 Element set: 680 Inclination: 098.3287 deg RA of node: 101.9287 deg Eccentricity: 0.0009020 Arg of perigee: 019.9066 deg Mean anomaly: 340.2487 deg Mean motion: 14.29207346 rev/day Decay rate: -3.9e-07 rev/day^2 Epoch rev: 71009 Checksum: 301
Satellite: IO-26 Catalog number: 22826 Epoch time: 07129.81709417 Element set: 376 Inclination: 098.3214 deg RA of node: 102.4643 deg Eccentricity: 0.0009761 Arg of perigee: 017.4923 deg Mean anomaly: 342.6595 deg Mean motion: 14.29453451 rev/day Decay rate: 8.0e-08 rev/day^2 Epoch rev: 71009 Checksum: 305
Satellite: PO-28 Catalog number: 22829 Epoch time: 07130.42151311 Element set: 654 Inclination: 098.3101 deg RA of node: 104.2146 deg Eccentricity: 0.0009759 Arg of perigee: 350.9772 deg Mean anomaly: 009.1245 deg Mean motion: 14.30152858 rev/day Decay rate: -6.6e-07 rev/day^2 Epoch rev: 71041 Checksum: 275
Satellite: GO-32 Catalog number: 25397 Epoch time: 07129.70171343 Element set: 0298 Inclination: 098.4160 deg RA of node: 178.5937 deg Eccentricity: 0.0001311 Arg of perigee: 023.6114 deg Mean anomaly: 336.5115 deg Mean motion: 14.23124083 rev/day Decay rate: -1.79e-06 rev/day^2 Epoch rev: 45868 Checksum: 297
Satellite: MO-46 Catalog number: 26548 Epoch time: 07130.42433257 Element set: 790 Inclination: 064.5575 deg RA of node: 299.4894 deg Eccentricity: 0.0020312 Arg of perigee: 201.3586 deg Mean anomaly: 158.6684 deg Mean motion: 14.83134044 rev/day Decay rate: 1.47e-06 rev/day^2 Epoch rev: 35793 Checksum: 321
Satellite: NO-44 Catalog number: 26931 Epoch time: 07130.37664088 Element set: 582 Inclination: 067.0518 deg RA of node: 244.8859 deg Eccentricity: 0.0007497 Arg of perigee: 275.4760 deg Mean anomaly: 084.5451 deg Mean motion: 14.29483350 rev/day Decay rate: -2.7e-07 rev/day^2 Epoch rev: 29269 Checksum: 337
Satellite: SO-50 Catalog number: 27607 Epoch time: 07129.65085536 Element set: 0309 Inclination: 064.5581 deg RA of node: 202.0345 deg Eccentricity: 0.0049629 Arg of perigee: 011.1505 deg Mean anomaly: 349.0680 deg Mean motion: 14.71254595 rev/day Decay rate: -1.4e-07 rev/day^2 Epoch rev: 23545 Checksum: 293
Satellite: CO-55 Catalog number: 27844 Epoch time: 07129.92761236 Element set: 0024 Inclination: 098.7186 deg RA of node: 138.7530 deg Eccentricity: 0.0009315 Arg of perigee: 196.8386 deg Mean anomaly: 163.2484 deg Mean motion: 14.20508999 rev/day Decay rate: 5.6e-07 rev/day^2 Epoch rev: 20004 Checksum: 324
Satellite: CO-57 Catalog number: 27848 Epoch time: 07129.94330458 Element set: 0984 Inclination: 098.7179 deg RA of node: 137.9776 deg Eccentricity: 0.0009162 Arg of perigee: 202.0835 deg Mean anomaly: 157.9941 deg Mean motion: 14.20328271 rev/day Decay rate: 3.5e-07 rev/day^2 Epoch rev: 20002 Checksum: 325
Satellite: AO-51 Catalog number: 28375 Epoch time: 07129.81069704 Element set: 0811 Inclination: 098.1165 deg RA of node: 171.1010 deg Eccentricity: 0.0083880 Arg of perigee: 299.6117 deg Mean anomaly: 059.6727 deg Mean motion: 14.40565444 rev/day Decay rate: 1.7e-07 rev/day^2 Epoch rev: 15019 Checksum: 306
Satellite: CO-56 Catalog number: 28941 Epoch time: 07129.90736683 Element set: 0444 Inclination: 098.1322 deg RA of node: 186.7646 deg Eccentricity: 0.0231261 Arg of perigee: 048.8509 deg Mean anomaly: 313.2439 deg Mean motion: 15.38571875 rev/day Decay rate: 2.9001e-04 rev/day^2 Epoch rev: 06754 Checksum: 337
Satellite: HO-59 Catalog number: 29484 Epoch time: 07130.60431178 Element set: 308 Inclination: 098.2880 deg RA of node: 174.7192 deg Eccentricity: 0.0217926 Arg of perigee: 040.6791 deg Mean anomaly: 321.0506 deg Mean motion: 15.48668414 rev/day Decay rate: 5.3721e-04 rev/day^2 Epoch rev: 3525 Checksum: 318
Satellite: NO-60 Catalog number: 29661 Epoch time: 07130.85085129 Element set: 251 Inclination: 051.6333 deg RA of node: 282.0312 deg Eccentricity: 0.0006847 Arg of perigee: 252.5209 deg Mean anomaly: 107.4986 deg Mean motion: 16.09120077 rev/day Decay rate: 2.97272e-03 rev/day^2 Epoch rev: 2243 Checksum: 291
Satellite: NO-61 Catalog number: 29664 Epoch time: 07130.53871726 Element set: 156 Inclination: 051.6324 deg RA of node: 290.5268 deg Eccentricity: 0.0013524 Arg of perigee: 195.3923 deg Mean anomaly: 164.6463 deg Mean motion: 15.89259165 rev/day Decay rate: 2.9764e-04 rev/day^2 Epoch rev: 2216 Checksum: 324
Satellite: CP4 Catalog number: 31122 Epoch time: 07129.88415509 Element set: 0033 Inclination: 098.0834 deg RA of node: 204.4005 deg Eccentricity: 0.0087613 Arg of perigee: 143.8171 deg Mean anomaly: 216.8964 deg Mean motion: 14.54999330 rev/day Decay rate: 5.99e-06 rev/day^2 Epoch rev: 00328 Checksum: 303
Satellite: CP3 Catalog number: 31128 Epoch time: 07129.72664898 Element set: 0024 Inclination: 098.0842 deg RA of node: 204.1367 deg Eccentricity: 0.0104028 Arg of perigee: 144.2035 deg Mean anomaly: 216.6196 deg Mean motion: 14.51829688 rev/day Decay rate: -4.7e-07 rev/day^2 Epoch rev: 00324 Checksum: 295
Satellite: LIBERT Catalog number: 31129 Epoch time: 07130.69019377 Element set: 67 Inclination: 098.0829 deg RA of node: 205.0632 deg Eccentricity: 0.0103626 Arg of perigee: 141.3091 deg Mean anomaly: 219.5569 deg Mean motion: 14.51914189 rev/day Decay rate: 3.86e-06 rev/day^2 Epoch rev: 336 Checksum: 291
/EX SB KEPS @ AMSAT $ORB07130.W Orbital Elements 07130.WEATHER
HR AMSAT ORBITAL ELEMENTS FOR WEATHER SATELLITES FROM WA5QGD FORT WORTH,TX May 10, 2007 Send SUBSCRIBE KEPS/UNSUBSCRIBE KEPS to majordomo@amsat.org only BID: ORB07130.W TO ALL RADIO AMATEURS BT
Satellite: NOAA-10 Catalog number: 16969 Epoch time: 07129.67752480 Element set: 0651 Inclination: 098.7469 deg RA of node: 146.8350 deg Eccentricity: 0.0011550 Arg of perigee: 281.8629 deg Mean anomaly: 078.1240 deg Mean motion: 14.27323946 rev/day Decay rate: -4.1e-07 rev/day^2 Epoch rev: 07373 Checksum: 320
